Location: Capvern
(43.1036°N, 0.3160°E)
Time: 06:53:32
(UTC+00:00)

Cosmos 489 Rocket - Pass Details

Date: 03 June 2022
Orbit: 952 x 983 km, 74.0° (Epoch: 03 July)

Event Time Altitude Azimuth Distance (km) Brightness Sun altitude
Rises 03:02:41 0° 334° (NNW) 3,650 7.8 -11.9°
Reaches altitude 10° 03:05:16 10° 330° (NNW) 2,704 7.0 -11.6°
Maximum altitude 03:11:17 51° 257° (WSW) 1,205 4.7 -10.8°
Drops below altitude 10° 03:17:18 10° 183° (S) 2,707 6.4 -10.0°
Sets 03:19:54 0° 178° (S) 3,655 7.1 -9.7°
